Simultaneous Nadir Overpasses (SNOs) Predictions

Prediction of SNOs between METOP-C and LANDSAT-8 Satellite Orbit:

Table of predicted SNOs for the next 14.0 days since TLE Epoch: 1/14/2023
Index Date (METOP-C) Time (METOP-C) Lat,Lon (METOP-C) SZA (METOP-C ) Date (LANDSAT-8) Time (LANDSAT-8) Lat,Lon (LANDSAT-8) SZA (LANDSAT-8 ) Distance(km) Time Diff (sec)
1 01/16/2023 12:34:00 81.11, 30.98 103.71 01/16/2023 12:34:33 81.11, 30.94 103.72 0.70 33
2 01/16/2023 13:24:38 -81.13,-160.95 76.22 01/16/2023 13:23:59 -81.13,-161.11 76.25 2.77 39
3 01/19/2023 08:08:20 81.11, 97.49 103.14 01/19/2023 08:08:45 81.10, 97.30 103.12 3.31 25
4 01/19/2023 08:58:59 -81.13, -94.75 76.82 01/19/2023 08:58:11 -81.13, -94.73 76.84 0.35 48
5 01/22/2023 03:42:40 81.11, 163.91 102.51 01/22/2023 03:42:56 81.11, 163.78 102.50 2.27 16
6 01/22/2023 04:33:19 -81.13, -28.26 77.45 01/22/2023 04:32:22 -81.13, -28.23 77.47 0.49 57
7 01/24/2023 23:16:59 81.11,-129.77 101.82 01/24/2023 23:17:05 81.12,-129.63 101.84 2.57 6
8 01/25/2023 00:07:37 -81.14, 38.52 78.08 01/25/2023 00:06:31 -81.14, 38.38 78.12 2.36 66
9 01/27/2023 18:00:39 -81.09, 128.85 78.95 01/27/2023 18:01:50 -81.09, 128.76 78.94 1.59 71



Historial Predications of SNOs between METOP-C and LANDSAT-8
